Weather in Porub-Kepovskaya

Russia / Komi Republic     60°46′00″N   48°59′24″E
temp.,
°C
wind,
m/s
gust,
m/s
humid.,
%
clouds,
%
prec.,
mm/h
press.,
hPa
HPBL,
m
9 march, tue
tue900:00−19nne3897100 0.0 1006304
03:00−23nne3997100 0.1 1009264
06:00−26nne389791 0.0 1011206
09:00−25nne369346 0.0 1014279
12:00−20n359043 0.0 1015440
15:00−19n368768 0.0 1017599
18:00−24n269686 0.0 1018125
21:00−27nne239843 0.0 102178
10 march, wed
wed1000:00−28n23990 0.0 102132
03:00−29nnw22990 0.0 102219
06:00−30nnw22990 0.0 102219
09:00−24nw23931 0.0 1022227
12:00−19nw249196 0.1 1021413
15:00−17nw359098 0.1 1021492
18:00−20wnw399888 0.0 1021208
21:00−18nw4119593 0.1 1020447
11 march, thu
thu1100:00−16nw41193100 0.1 1018466
03:00−13nw41194100 0.2 1018529
06:00−12nw51290100 0.1 1018637
09:00−11nw5117898 0.1 1020613
12:00−10wnw597775 0.0 1020576
15:00−9wnw5117242 0.0 1020844
18:00−13wnw413841 0.0 1021629
21:00−13wnw4148927 0.0 1021610
12 march, fri
fri1200:00−13w4148884 0.0 1020542
03:00−14w5128892 0.0 1019520
06:00−14wsw51288100 0.0 1019501
09:00−12wsw51190100 0.0 1019516
12:00−9wsw51090100 0.0 1019516
15:00−6wsw5118595 0.1 1019694
18:00−8wsw4129014 0.0 1020615
21:00−10wsw5139151 0.0 1021524
13 march, sat
sat1300:00−12wsw4128924 0.0 1021422
03:00−14sw4119212 0.0 1022337
06:00−16sw4109539 0.0 1023326
09:00−13ssw498838 0.0 1023363
12:00−8ssw511800 0.0 1022557
15:00−6ssw511810 0.0 1020756
18:00−9ssw513880 0.0 1019744
21:00−9ssw5139132 0.1 1018877